Location: Ellerstadt
(49.4644°N, 8.2615°E)
Time: 19:07:25
(UTC+00:00)

Vanguard 1 - Pass Details

Date: 20 June 2021
Orbit: 651 x 3831 km, 34.2° (Epoch: 29 July)

Event Time Altitude Azimuth Distance (km) Brightness Sun altitude
Rises 02:39:58 0° 275° (W) 6,789 14.0 -5.6°
Reaches altitude 10° 02:47:04 10° 259° (W) 5,092 13.2 -4.8°
Maximum altitude 02:54:35 17° 226° (SW) 3,701 12.4 -3.9°
Drops below altitude 10° 03:00:09 10° 189° (S) 3,579 12.5 -3.3°
Sets 03:03:52 0° 169° (S) 4,100 12.9 -2.8°
